Skip Page Navigation
NASA JPL Caltech
NASA Logo - Jet Propulsion Laboratory + View the NASA Portal
+ Center for Near-Earth Object Studies
JPL Home Earth Solar System Stars & Galaxies Technology
JPL Solar System Dynamics
BODIES ORBITS EPHEMERIDES TOOLS PHYSICAL DATA DISCOVERY FAQ SITE MAP
IMPORTANT: The SSD Announcement email list is now available. Major changes are coming in the near future, including possible hostname and/or URL changes. To be notified of such changes, subscribe to this email list.

Please visit this page for more details.


JPL Small-Body Database Browser
Search: [ help ]  
447426 (2006 CD59)
Classification: Main-belt Asteroid          SPK-ID: 2447426
Ephemeris | Orbit Diagram | Orbital Elements | Mission Design | Physical Parameters | Discovery Circumstances | Close-Approach Data ]

[ show orbit diagram ]
Orbital Elements at Epoch 2459000.5 (2020-May-31.0) TDB
Reference: JPL 12 (heliocentric ecliptic J2000)
 Element Value Uncertainty (1-sigma)   Units 
e .2454493866414821 9.5973e-08  
a 3.065772151266111 3.9075e-08 au
q 2.313280257155307 2.9001e-07 au
i .6078951010848961 1.0302e-05 deg
node 242.8442034201429 0.00097736 deg
peri 175.3636153165713 0.00097783 deg
M 290.7857846118166 2.2269e-05 deg
tp 2459377.465008070439
(2021-Jun-11.96500807)
0.00012029 TDB
period 1960.686863879798
5.37
3.7485e-05
1.026e-07
d
yr
n .1836091252672717 3.5103e-09 deg/d
Q 3.818264045376915 4.8666e-08 au
  Orbit Determination Parameters
   # obs. used (total)      93  
   data-arc span      6352 days (17.39 yr)  
   first obs. used      1999-10-03  
   last obs. used      2017-02-22  
   planetary ephem.      DE431  
   SB-pert. ephem.      SB431-N16  
   condition code      0  
   norm. resid. RMS      .6817  
   source      ORB  
   producer      Otto Matic  
   solution date      2017-Jul-11 15:47:18  

Additional Information
 Earth MOID = 1.32559 au 
 Jupiter MOID = 1.54388 au 
 T_jup = 3.185 
[ show covariance matrix ]

Ephemeris | Orbit Diagram | Orbital Elements | Mission Design | Physical Parameters | Discovery Circumstances | Close-Approach Data ]

Physical Parameter Table
Parameter Symbol Value Units Sigma Reference Notes
absolute magnitude H 17.2   n/a MPO413514  

447426 (2006 CD59)          Discovered 2006-Feb-06 by Mt. Lemmon Survey at Mount Lemmon
Reference: Last Updated: 2015-10-28

[ show close-approach data ]
Alternate Designations
 2006 CD59 = 1999 TS301 = 2004 RG269 = 2006 BG271 
Ephemeris | Orbit Diagram | Orbital Elements | Mission Design | Physical Parameters | Discovery Circumstances | Close-Approach Data ]
ABOUT SSD CREDITS/AWARDS PRIVACY/COPYRIGHT GLOSSARY LINKS
FirstGov 2020-Jun-06 12:28 UT
(server date/time)  
NASA Home Page
Site Manager:   Ryan S. Park
Webmaster  Alan B. Chamberlin